EHI
0 0 0 0 0 0 0 0 0 0 0 0 0 0 0 0 0 0 0 0 0 0 0 0 0 0 0 0 0 0 0 0 0 0 0 0 0 0
0 0 0 0 0 0 0 0 0 0 0 0 0 0 0 0 0 0 0 0 0 0 0 0 0 0 0 0 0 0 0 0 0 0 0 0 0 0
0 0 0 0 0 0 0 0 0 0 0 0 0 0 0 0 0 0 0 0 0 0 0 0 0 0 0 0 0 0 0 0 0 0 0 0 0 0
0 0 0 0 0 0 0 0 0 0 0 0 0 0 0 0 0 0 0 0 0 0 0 0 0 0 0 0 0 0 0 0 0 0 0 0 0 0
0 0 0 0 0 0 0 0 0 0 0 0 0 0 0 0 0 0 0 0 0 0 0 0 0 0 0 0 0 0 0 0 0 0 0 0 0 0
0 0 0 0 0 0 0 0 0 0 0 0 0 0 0 0 0 0 0 0 0 0 0 0 0 0 0 0 0 0 0 0 0 0 0 0 0 0
0 0 0 0 0 0 0 0 0 0 0 0 0 0 0 0 0 0 0 0 0 0 0 0 0 0 0 0 0 0 0 0 0 0 0 0 0 0
0 0 0 0 0 0 0 0 0 0 0 0 0 0 0 0 0 0 0 0 0 0 0 0 0 0 0 0 0 0 0 0 0 0 0 0 0 0
0 0 0 0 0 0 0 0 0 0 0 0 0 0 0 0 0 0 0 0 0 0 0 0 0 0 0 0 0 0 0 0 0 0 0 0 0 0
0 0 0 0 0 0 0 0 0 0 0 0 0 0 0 0 0 0 0 0 0 0 0 0 0 0 0 0 0 0 0 0 0 0 0 0 0 0
0 0 0 0 0 0 0 0 0 0 0 0 0 0 0 0 0 0 0 0 0 0 0 0 0 0 0 0 0 0 0 0 0 0 0 0 0 0
0 0 0 0 0 0 0 0 0 0 0 0 0 0 0 0 0 0 0 0 0 0 0 0 0 0 0 0 0 0 0 0 0 0 0 0 0 0
0 0 0 0 0 0 0 0 0 0 0 0 0 0 0 0 0 0 0 0 0 0 0 0 0 0 0 0 0 0 0 0 0 0 0 0 0 0
0 0 0 0 0 0 0 0 0 0 0 0 0 0 0 0 0 0 0 0 0 0 0 0 0 0 0 0 0 0 0 0 0 0 0 0 0 0
0 0 0 0 0 0 0 0 0 0 0 0 0 0 0 0 0 0 0 0 0 0 0 0 0 0 0 0 0 0 0 0 0 0 0 0 0 0
0 0 0 0 0 0 0 0 0 0 0 0 0 0 0 0 0 0 0 0 0 0 0 0 0 0 0 0 0 0 0 0 0 0 0 0 0 0
0 0 0 0 0 0 0 0 0 0 0 0 0 0 0 0 0 0 0 0 0 0 0 0 0 0 0 0 0 0 0 0 0 0 0 0 0 0
0 0 0 0 0 0 0 0 0 0 0 0 0 0 0 0 0 0 0 0 0 0 0 0 0 0 0 0 0 0 0 0 0 0 0 0 0 0
0 0 0 0 0 0 0 0 0 0 0 0 0 0 0 0 0 0 0 0 0 0 0 0 0 0 0 0 0 0 0 0 0 0 0 0 0 0
0 0 0 0 0 0 0 0 0 0 0 0 0 0 0 0 0 0 0 0 0 0 0 0 0 0 0 0 0 0 0 0 0 0 0 0 0 0
0 0 0 0 0 0 0 0 0 0 0 0 0 0 0 0 0 0 0 0 0 0 0 0 0 0 0 0 0 0 0 0 0 0 0 0 0 0
0 0 0 0 0 0 0 0 0 0 0 0 0 0 0 0 0 0 0 0 0 0 0 0 0 0 0 0 0 0 0 0 0 0 0 0 0 0
0 0 0 0 0 0 0 0 0 0 0 0 0 0 0 0 0 0 0 0 0 0 0 0 0 0 0 0 0 0 0 0 0 0 0 0 0 0
Wind_Speed
6 7 6 5 5 5 5 5 6 5 6 4 3 4 4 4 7 7 6 11 13 12 11 11 10 9 9 8 8 7 7 7 7 7 6 4 3 2
4 6 6 5 6 6 5 5 5 5 4 4 3 3 4 5 7 6 6 11 12 12 11 10 10 9 9 8 8 7 8 8 8 7 6 4 3 3
3 4 5 5 5 5 5 5 5 5 4 2 2 2 4 5 5 5 5 6 6 11 11 10 10 9 9 8 8 8 8 8 8 7 6 5 4 4
2 2 4 4 5 5 6 6 5 5 5 5 4 3 4 5 6 6 5 5 5 10 11 10 10 9 9 9 9 9 8 8 7 7 6 6 6 6
2 2 2 3 4 4 5 5 5 5 4 5 4 3 2 4 5 5 6 5 5 7 9 10 10 10 10 10 10 10 9 9 8 8 8 8 9 10
2 1 1 2 3 4 4 5 5 5 5 5 4 4 3 4 5 6 6 5 5 5 6 7 10 11 11 11 11 11 11 10 10 10 10 10 11 11
3 2 1 1 4 4 3 4 5 5 5 5 5 4 5 6 6 5 6 6 5 4 6 5 6 6 6 10 11 12 12 12 12 12 12 11 11 12
4 3 2 1 1 2 3 6 6 6 5 5 4 6 6 6 6 7 7 7 4 5 5 5 5 6 5 5 10 13 13 13 13 13 13 12 12 12
4 3 3 3 4 2 3 3 4 5 5 5 6 6 7 8 9 9 7 6 5 6 6 5 4 5 4 6 12 13 13 14 14 13 14 13 12 11
4 3 3 3 2 2 3 3 3 3 2 3 4 4 5 7 7 7 9 8 7 5 4 5 3 4 4 5 11 12 12 12 13 13 13 12 11 10
5 4 3 2 2 3 3 4 4 3 4 5 5 6 10 12 11 9 10 10 7 3 2 4 4 4 4 4 6 10 10 10 10 12 12 11 10 8
4 4 5 4 3 3 3 3 4 2 3 4 5 6 8 11 13 9 9 10 7 4 3 4 5 4 4 2 2 3 5 7 8 8 10 10 9 5
3 3 3 5 4 4 3 3 3 4 4 5 5 5 5 5 6 5 5 7 7 4 6 5 5 3 4 4 2 2 2 2 2 3 5 9 9 6
3 3 3 5 5 5 4 5 6 6 4 4 4 4 5 5 5 6 7 6 5 6 9 6 5 5 5 4 3 2 2 2 2 2 2 4 5 5
2 3 4 5 6 5 7 7 5 4 4 4 4 3 3 5 6 6 8 9 10 8 5 3 6 7 4 5 5 4 3 2 2 2 2 2 2 2
3 3 5 6 5 5 5 5 3 3 4 4 4 4 4 5 5 5 6 7 6 5 6 6 6 7 4 4 5 5 4 5 4 3 3 2 2 2
2 2 2 2 3 3 3 3 3 3 4 3 4 5 5 5 5 4 4 4 4 4 4 4 6 6 5 5 4 4 4 3 4 5 4 3 3 4
2 1 1 2 2 2 2 3 3 3 3 4 4 4 5 5 4 3 3 4 5 5 4 4 4 4 3 4 2 5 4 4 3 4 4 4 4 4
1 0 0 0 1 1 1 2 2 2 2 3 4 4 5 4 4 4 4 5 5 4 4 3 3 4 4 2 0 1 5 4 4 4 4 4 4 4
1 1 1 1 1 1 1 1 2 2 3 3 4 4 4 4 4 4 4 5 5 4 3 2 2 3 4 4 3 2 3 4 5 5 3 2 3 3
2 2 2 2 2 2 2 2 3 3 3 3 3 4 4 4 4 4 4 6 4 4 4 3 2 3 4 4 3 1 2 3 5 4 5 3 2 2
3 3 3 3 3 3 3 3 3 3 3 3 3 4 4 4 5 5 5 5 3 3 3 3 3 2 2 3 3 2 1 1 2 4 6 7 5 4
4 4 4 3 3 3 3 4 4 4 4 4 4 4 4 4 4 4 5 4 4 4 4 3 2 2 2 2 3 2 2 2 2 2 4 9 12 12
Wind_Direction
217 210 208 201 195 193 181 172 168 187 207 200 191 191 185 177 179 183 182 190 185 181 179 176 173 175 173 173 170 167 163 157 153 158 163 165 163 162
218 212 210 202 196 190 188 186 181 180 196 189 189 173 176 178 178 176 180 180 182 176 176 176 173 173 174 171 167 163 158 156 153 153 151 146 141 125
236 216 210 198 195 191 185 186 187 182 188 169 164 162 166 170 165 163 163 166 171 170 170 170 171 170 167 161 159 154 152 153 153 153 150 146 134 124
277 229 213 199 193 192 190 190 189 186 178 171 167 167 168 170 160 159 159 159 152 160 162 163 163 163 156 150 149 145 144 143 143 144 143 137 126 115
300 261 233 194 187 192 184 183 182 182 174 162 163 155 142 150 149 149 148 139 146 149 150 149 148 147 144 140 138 137 136 133 129 125 121 115 109 106
325 294 217 191 187 185 183 185 176 171 170 166 160 153 144 147 152 152 146 134 135 133 126 128 131 129 131 132 133 132 129 126 123 118 112 108 105 102
355 356 345 205 198 193 187 181 172 171 170 172 165 156 154 159 161 151 144 132 117 122 121 120 121 117 121 126 129 130 127 125 120 117 112 108 107 106
0 357 357 18 131 155 174 181 178 176 176 173 169 169 163 155 146 149 145 143 138 139 122 110 113 115 113 115 126 128 127 125 121 118 115 112 112 111
4 3 18 33 37 60 74 105 152 164 173 171 170 170 164 162 155 156 152 138 126 137 120 106 107 105 102 115 125 127 128 128 125 122 121 119 117 115
5 13 28 23 35 73 78 75 81 91 136 154 164 163 156 153 153 143 134 114 101 98 99 107 102 96 92 98 116 119 122 126 128 127 125 122 119 119
3 13 18 22 46 93 105 100 86 71 81 109 123 134 140 144 141 135 138 137 129 108 80 107 118 99 81 76 92 104 112 120 127 132 133 127 119 111
359 8 14 22 39 82 115 122 117 103 104 104 108 122 131 143 147 150 150 147 137 130 135 116 130 126 111 76 74 90 95 98 111 127 138 134 127 118
353 353 356 18 44 75 102 115 132 127 117 118 117 122 125 130 131 126 135 146 142 132 152 131 131 124 120 125 114 95 101 108 97 97 134 150 149 145
344 338 347 21 51 73 88 103 110 109 108 111 113 119 126 126 120 111 101 86 82 125 146 136 133 146 133 132 145 137 109 109 118 122 126 140 154 163
338 349 16 42 55 63 77 91 92 94 104 108 107 98 97 110 112 105 94 90 83 88 99 107 128 137 128 137 145 148 151 164 160 151 155 157 161 158
2 20 44 59 60 63 63 63 66 80 97 102 101 93 93 104 112 115 117 113 101 80 55 73 118 129 120 122 140 152 158 166 173 180 167 178 193 196
358 28 32 40 49 51 57 58 64 74 82 86 96 101 102 103 102 102 113 108 112 122 103 70 70 75 83 122 136 153 155 159 170 168 171 201 230 222
61 58 50 54 63 69 81 73 67 82 90 99 100 105 110 112 108 98 95 111 122 125 124 129 127 103 86 53 77 156 160 160 160 167 172 196 239 237
86 92 95 88 74 84 95 94 90 96 104 111 113 115 115 113 112 112 111 110 115 118 123 134 137 129 136 169 300 140 164 158 153 165 187 198 224 242
135 194 211 213 195 168 145 126 122 118 113 117 119 121 124 122 121 125 127 129 130 126 127 132 150 153 161 172 174 174 167 161 168 179 185 199 250 276
211 211 212 209 206 194 179 160 150 147 143 137 137 139 138 129 130 133 132 135 128 134 151 165 154 128 109 103 109 176 219 208 183 177 170 172 218 257
216 213 212 209 203 196 182 168 159 157 155 150 151 153 151 146 148 151 153 153 153 151 145 131 127 121 125 149 175 191 199 203 228 216 203 186 179 204
212 210 208 204 199 191 184 179 176 174 172 168 164 162 159 157 159 159 163 160 149 146 139 144 144 135 140 158 171 185 201 201 193 215 243 233 232 241